Simultaneous Nadir Overpasses (SNOs) Predictions

Prediction of SNOs between AQUA and NPP Satellite Orbit:

Table of predicted SNOs for the next 14.0 days since TLE Epoch: 9/7/2013
Index Date (AQUA) Time (AQUA) Lat,Lon (AQUA) SZA (AQUA ) Date (NPP) Time (NPP) Lat,Lon (NPP) SZA (NPP ) Distance(km) Time Diff (sec)
1 09/07/2013 21:49:06 74.74, 88.32 92.88 09/07/2013 21:48:49 74.73, 88.30 92.90 0.72 17
2 09/07/2013 22:38:07 -76.07,-100.33 88.60 09/07/2013 22:39:06 -76.08,-100.25 88.67 2.13 59
3 09/10/2013 13:16:30 -73.84, 34.43 85.23 09/10/2013 13:15:21 -73.84, 34.45 85.18 0.80 69
4 09/10/2013 14:05:33 74.98,-155.18 93.55 09/10/2013 14:05:42 74.97,-155.27 93.56 2.72 9
5 09/13/2013 05:32:52 -74.33, 151.41 84.81 09/13/2013 05:32:09 -74.33, 151.44 84.78 0.89 43
6 09/13/2013
